Showing default

FLOCK 4BE 28, 60519

Orbit data source: Space-Track

FLOCK 4BE 28, 60519 is a payload satellite owned by Planet (US) in SSO that was launched on Fri, 16 Aug 2024 UTC via an FALCON 9 launch vehicle from the Air Force Western Test Range (AFWTR). Payload-class satellites include a variety of spacecraft equipped with specific instruments for various scientific and technological missions. These include communications satellites like Starlink; space stations such as the ISS; scientific satellites like the Hubble; Earth observation satellites from companies like Planet Labs, Umbra, and HawkEye 360; GPS; miniature CubeSats for education and research; and military/defense satellites.

Loading next visibility...
Identifier
60519, 2024-149BD
Orbit
SSO
Country
Flag of USUS
Related business
Manufacturer
Planet
Mission
Operational Commercial Imaging
Bus & Motor
CUBESAT 3U, Unknown motor
Mass
5.7 kg wet, 5.7 kg dry
Launch date (UTC)
2024-08-16 (2 years ago)
Launch vehicle
FALCON 9
Launch site
Air Force Western Test Range (AFWTR)
Object type
Payload
Rocket body
Debris
Shape & HBR
Box + 2 Pan, 1.0 m
Radar Cross Section
0.072 m², Medium (>0.1 m² and < 1m²)

Expand to show TLE details & history
Last TLE update: 12 hours ago

TLE from 12 hours ago
0 FLOCK 4BE 28
1 60519U 24149BD  26257.49784483  .00020511  00000-0  36847-3 0  9990
2 60519  97.3702 344.9527 0002800 351.1817   8.9384 15.49902656116255
Epoch: 2026-09-14T11:56Z
TLE epoch observation values (Epoch: 2026-09-14T11:56:53.793Z)
Latitude
-0.00009°
Longitude
172.25129°
Altitude
418.262 km
Speed
7.661 km/s
True Right ascension
22h 59m 48s
True Declination
0° 00' 00"
Sunlit
Object was in full shadow at epoch
Visualization orbit readout
Latitude
Unknown
Longitude
Unknown
Altitude
Unknown
Speed
Unknown
Apparent Right ascension
Unknown
Apparent Declination
Unknown
Sunlit
N/A
Visualization observer readout
Local Sidereal Time
16:20:40
Azimuth
Unknown
Elevation
Unknown
Doppler factor
Unknown
Orbital elements
Apogee altitude
415.837 km
Perigee altitude
412.033 km
Semi-major axis
6,792.072 km
Eccentricity
0.00028
Inclination
97.3702°
RAAN
344.9527°
Arg. of periapsis
351.1817°
True anomaly
8.94339°
Mean anomaly
8.9384°
Eccentric anomaly
8.94089°
Mean motion
3.87739 °/min
Orbital period
92.85 mins
BSTAR
0.00036847
Loading maneuver chart data...
Computing Atmospheric mass density...

Documentation

Showing up to 5 results
|